{"data":{"norad_id":59258,"intl_designator":"2024-050E","name":"STARLINK-31637","alt_names":[],"object_type":"PAYLOAD","status":"ACTIVE","operator":null,"country":"US","launch_date":"2024-03-19","launch_site_code":"AFWTR","launch_vehicle":null,"mission":null,"orbit_class":"UNKNOWN","rcs_meters":null,"size_class":null,"mass_kg":null,"dimensions":null,"purposes":["comms"],"wikipedia_slug":null,"has_3d_model":false,"image_url":null,"decayed_at":null,"tle_current":{"epoch":"2026-09-21T14:34:54.739200Z","epoch_age_seconds":66579,"freshness":"FRESH","line1":"1 59258U 24050E   26264.60757800  .00013232  00000+0  40279-3 0  9998","line2":"2 59258  53.1628 348.2008 0001759  89.9058 270.2146 15.34343045140584","mean_motion":15.34343045,"eccentricity":0.0001759,"inclination_deg":53.1628,"raan_deg":348.2008,"arg_perigee_deg":89.9058,"mean_anomaly_deg":270.2146,"bstar":0.00040279,"rev_number":14058,"period_min":93.851241721502,"perigee_km":461.66919413036,"apogee_km":464.07586128221,"semimajor_km":6841.0095277063,"source":"CELESTRAK","updated_at":"2026-09-22T09:00:48.871591Z"}}}